Wind_Speed
20 21 22 24 25 25 25 25 24 24 23 24 24 24 24 25 25 24 23 23 25 24 24 24 25 25 26 27 28 29 29 30 31 31 32 32 33 34 34 35 36 36 36
22 23 25 26 28 28 28 28 27 27 27 27 26 26 27 27 27 27 26 25 26 26 27 27 28 29 30 30 31 31 32 33 34 34 35 36 37 38 38 39 39 39 40
25 26 27 28 29 29 30 31 31 31 31 30 29 29 29 29 29 29 29 29 28 27 28 30 31 31 32 32 33 34 35 36 37 38 39 39 40 41 42 42 42 43 43
28 29 31 31 33 32 31 33 33 34 33 31 30 30 30 29 30 31 31 31 31 30 31 32 33 35 35 35 36 38 39 40 41 42 43 43 44 45 45 46 46 46 46
30 32 33 32 33 32 32 33 32 33 33 31 31 30 30 30 29 30 31 32 33 33 33 34 36 38 38 39 40 41 42 43 44 46 47 47 48 49 49 49 50 50 50
31 32 32 32 33 33 31 30 28 29 29 29 30 30 30 29 28 28 29 30 31 33 34 35 36 37 39 40 42 44 46 47 48 50 51 51 52 53 53 54 54 54 54
32 31 32 33 33 33 32 30 28 27 26 26 26 27 28 27 27 28 29 31 32 34 36 37 38 39 41 43 45 47 49 51 52 54 55 56 57 58 58 58 58 58 58
34 33 33 33 33 32 31 31 29 27 26 26 26 26 26 28 28 29 31 32 33 35 38 40 42 44 46 48 49 51 53 54 56 58 59 61 62 62 63 63 63 62 62
36 35 34 33 34 33 31 31 31 30 27 26 28 30 30 31 31 33 35 36 38 40 42 44 46 48 50 52 54 56 57 59 60 62 63 64 65 66 66 66 66 66 66
38 36 36 37 36 34 33 33 34 33 31 31 32 33 34 35 36 37 39 41 43 44 46 48 51 53 55 57 59 60 61 63 64 65 67 67 68 68 68 68 68 68 68
40 39 38 39 38 36 36 36 36 36 35 35 36 37 38 40 42 43 44 45 48 49 51 53 55 57 59 60 62 63 64 66 66 67 68 69 69 69 68 68 68 68 68
42 41 40 41 40 39 39 39 39 39 39 40 40 41 42 45 46 48 49 50 52 54 55 57 58 60 62 63 65 65 66 67 67 68 68 68 68 68 68 67 67 68 68
43 43 43 43 43 42 42 42 42 42 43 43 45 46 47 49 51 52 54 55 56 57 59 60 61 63 64 66 67 67 67 67 67 67 67 67 67 67 67 67 67 67 67
44 44 45 45 45 45 45 45 45 46 46 47 48 50 51 52 54 56 57 58 58 59 60 62 64 65 66 66 66 66 66 66 66 65 65 65 66 66 66 66 66 65 65
47 48 48 48 49 49 48 49 49 49 49 50 51 53 54 55 56 57 58 59 60 60 60 62 63 64 65 64 64 63 63 63 63 63 63 63 63 63 63 63 63 63 62
50 50 50 50 51 51 51 52 52 52 53 53 54 55 56 57 57 58 59 59 60 60 59 60 61 62 61 61 61 61 61 61 61 61 60 59 58 57 57 57 57 57 58
52 53 53 53 53 54 55 55 55 56 56 56 57 57 57 57 58 58 58 58 59 59 58 58 59 59 59 60 59 59 59 58 57 56 55 54 53 52 52 51 50 49 50
54 56 56 57 57 58 58 58 58 58 58 58 58 57 57 57 56 56 56 56 57 57 57 56 56 57 57 57 56 56 55 54 52 50 49 47 46 45 44 43 44 44 45
56 57 58 59 59 60 60 60 60 59 58 58 57 57 56 55 55 55 54 54 54 54 54 54 53 53 53 53 52 51 49 47 45 44 43 41 40 40 40 40 40 40 41
56 58 59 60 60 60 60 59 59 58 57 56 55 55 54 53 53 53 52 53 52 52 52 51 51 51 50 49 47 45 42 41 41 40 38 37 37 37 37 37 37 37 37
58 59 59 59 59 59 58 58 57 56 55 54 54 53 53 53 52 52 52 51 51 50 49 49 47 46 44 42 40 39 38 37 36 35 35 35 35 35 35 35 35 35 34
57 57 57 57 57 56 56 56 55 54 54 53 53 53 52 52 51 51 50 49 48 46 45 44 41 39 37 36 35 34 33 32 31 31 32 32 33 32 33 32 32 32 31
54 55 55 54 54 54 54 54 53 53 53 53 52 52 51 50 48 47 46 44 42 41 39 37 34 33 31 30 29 28 28 28 28 28 29 29 30 30 30 30 30 29 29
53 53 53 53 52 52 52 52 52 51 51 50 49 48 46 45 43 42 40 38 36 34 31 28 27 26 25 24 24 24 24 25 26 27 27 27 28 28 28 28 28 27 27
50 50 50 50 50 50 50 50 49 47 46 45 44 42 40 38 36 33 31 30 28 26 24 22 21 20 19 19 20 21 22 23 24 25 26 26 25 26 26 26 25 25 24
48 48 47 47 47 46 46 45 43 41 40 38 36 34 32 29 27 25 24 22 20 19 18 15 15 15 15 16 17 18 20 21 22 23 24 24 24 24 23 24 24 23 22
Wind_Direction
322 320 320 315 312 306 298 289 286 284 281 278 275 274 275 277 279 280 279 277 275 275 276 277 277 277 276 276 276 276 275 275 275 275 275 275 274 273 272 272 271 270 269
325 322 321 320 316 310 304 296 289 286 281 278 276 276 277 279 279 281 280 278 277 277 277 278 279 278 278 277 277 276 276 277 276 276 276 275 275 274 273 272 271 270 269
325 322 322 322 319 313 309 303 296 288 284 280 277 276 277 280 279 280 280 278 277 279 278 279 280 280 279 279 279 279 279 278 278 278 278 277 276 275 274 273 272 271 269
322 321 323 321 319 316 311 307 299 291 286 284 279 277 276 279 281 280 280 281 280 279 279 280 281 281 281 281 281 281 280 280 279 278 278 277 277 276 275 274 273 272 271
321 321 323 322 323 322 317 310 304 296 290 287 283 279 278 281 282 280 281 283 283 282 282 281 281 280 280 280 281 282 281 280 279 278 278 277 276 276 275 274 274 273 271
319 320 320 322 323 323 321 318 311 304 296 292 289 285 284 285 284 281 283 285 286 286 286 285 284 283 282 282 283 283 282 281 280 279 278 278 277 275 274 274 273 272 271
313 316 318 320 323 323 322 320 316 311 304 300 295 292 291 290 289 287 287 287 287 288 289 291 290 286 284 283 283 283 282 281 280 279 278 277 277 276 275 274 273 271 270
307 308 312 316 318 319 319 319 316 316 312 305 301 299 299 296 292 292 292 291 291 291 289 289 288 286 284 282 281 280 279 279 278 278 278 277 276 276 275 274 272 271 270
301 304 305 310 311 312 314 315 316 313 310 305 303 300 300 298 295 294 293 292 290 288 286 286 285 285 283 282 281 280 279 279 279 278 278 277 277 276 275 275 273 272 271
296 297 300 304 304 306 308 309 308 309 306 304 303 300 297 296 294 292 290 289 287 286 285 284 284 283 282 282 282 281 280 280 280 280 279 278 278 277 276 275 273 272 271
291 294 296 299 301 302 303 302 302 303 301 300 299 298 296 294 292 292 291 289 288 288 287 286 284 283 282 282 282 282 282 281 281 280 280 279 278 278 277 275 274 273 272
288 292 293 295 297 298 298 298 298 299 298 296 296 295 294 293 292 291 290 289 289 289 288 287 285 283 283 283 284 284 283 282 282 282 281 280 279 279 277 276 275 273 272
288 290 291 293 296 296 295 296 296 296 295 294 294 293 293 292 291 290 289 289 289 288 288 287 286 285 284 284 284 284 284 284 284 283 283 282 281 280 279 278 276 274 273
288 290 292 293 294 294 293 294 294 294 294 293 292 291 291 291 290 289 288 288 287 287 286 286 286 286 286 286 287 287 286 286 286 285 284 283 282 282 280 279 277 275 273
287 289 291 292 292 292 292 294 294 294 292 291 290 290 289 288 288 288 287 287 286 286 285 286 286 287 287 288 288 288 288 288 288 287 286 286 284 283 281 280 278 276 274
286 288 289 290 290 291 291 292 292 292 291 290 290 289 289 288 288 287 287 287 287 287 286 286 287 287 287 288 289 289 289 290 289 289 288 287 286 285 283 281 279 277 275
287 289 289 289 290 291 291 291 291 291 290 290 290 289 289 289 288 288 288 288 288 288 288 288 288 288 288 289 289 290 290 291 290 289 289 288 287 286 284 283 281 279 276
286 287 288 289 290 291 290 290 291 291 291 291 290 290 289 289 289 288 288 288 288 289 289 288 288 289 290 291 291 291 291 291 291 291 291 290 289 287 285 284 282 281 279
284 286 287 289 290 290 291 291 291 291 291 291 291 290 290 290 289 289 289 289 289 289 290 290 289 290 291 291 292 292 292 292 292 292 292 291 290 289 287 287 286 284 281
286 287 288 289 290 290 291 291 291 291 291 291 291 290 290 290 290 290 290 290 290 290 290 290 290 291 291 291 292 293 293 293 294 294 294 294 293 291 290 289 288 286 284
287 288 289 290 290 290 291 291 291 291 291 291 291 291 291 291 290 290 290 290 290 289 290 291 292 292 291 292 293 294 295 296 296 296 296 296 295 294 293 292 290 289 286
288 289 290 291 291 291 291 291 291 291 291 291 291 291 291 291 291 291 290 290 290 290 291 292 292 292 293 294 296 298 299 299 300 300 301 301 300 299 297 296 294 291 288
292 292 292 292 292 292 292 291 291 291 291 291 291 291 291 291 291 290 290 290 290 291 291 291 291 293 294 295 298 300 303 305 306 307 307 307 305 303 302 300 298 294 291
292 292 292 293 293 293 293 293 292 292 292 292 292 292 292 291 291 290 290 290 290 290 290 290 292 293 295 298 302 306 308 311 312 313 315 315 312 310 308 306 304 300 296
294 294 294 294 294 294 294 294 294 294 293 293 292 292 292 292 292 292 291 291 291 291 292 293 293 295 299 303 308 312 316 317 319 319 321 321 320 319 316 314 312 308 304
296 296 295 296 296 296 296 296 296 296 295 294 294 293 293 293 293 293 292 292 292 294 295 296 299 302 305 309 315 319 322 324 325 326 327 327 327 326 323 320 319 316 312
Height
5879 5878 5877 5876 5874 5872 5870 5869 5869 5868 5867 5866 5866 5866 5865 5864 5863 5863 5864 5864 5863 5863 5863 5863 5863 5862 5862 5861 5861 5861 5860 5860 5860 5859 5859 5859 5858 5858 5858 5858 5857 5857 5858
5876 5874 5873 5871 5869 5866 5864 5863 5863 5863 5862 5861 5860 5860 5860 5860 5859 5858 5858 5858 5858 5858 5858 5857 5857 5856 5856 5855 5854 5853 5853 5852 5852 5851 5851 5850 5850 5849 5849 5848 5848 5848 5848
5872 5870 5868 5866 5864 5862 5860 5858 5857 5857 5856 5855 5854 5854 5854 5854 5854 5853 5852 5852 5852 5852 5852 5851 5850 5849 5848 5848 5847 5846 5845 5844 5843 5842 5841 5841 5840 5839 5839 5838 5838 5838 5838
5867 5865 5863 5861 5859 5856 5854 5852 5850 5850 5849 5848 5848 5848 5848 5848 5848 5847 5845 5844 5845 5845 5845 5844 5843 5841 5840 5839 5838 5837 5836 5835 5834 5832 5831 5830 5829 5829 5828 5827 5827 5827 5827
5863 5861 5858 5856 5853 5850 5848 5845 5843 5843 5843 5842 5842 5841 5841 5841 5841 5840 5839 5837 5837 5837 5837 5836 5835 5832 5831 5830 5829 5828 5826 5825 5823 5821 5820 5819 5817 5817 5816 5815 5815 5814 5814
5858 5856 5853 5851 5848 5845 5843 5840 5838 5837 5836 5836 5835 5835 5835 5835 5834 5833 5833 5831 5830 5828 5827 5827 5826 5824 5823 5821 5819 5817 5815 5813 5811 5810 5808 5806 5804 5803 5802 5802 5801 5801 5800
5854 5852 5849 5847 5844 5841 5838 5836 5833 5832 5831 5829 5829 5828 5828 5828 5827 5826 5825 5824 5823 5821 5819 5817 5816 5815 5813 5811 5808 5806 5804 5801 5799 5796 5794 5792 5790 5789 5788 5787 5786 5785 5785
5848 5847 5845 5843 5840 5837 5834 5832 5829 5827 5825 5824 5823 5822 5822 5822 5820 5819 5818 5816 5815 5813 5811 5808 5806 5803 5801 5799 5797 5794 5791 5788 5785 5782 5780 5777 5775 5773 5771 5770 5769 5769 5768
5842 5841 5839 5837 5835 5833 5830 5827 5824 5822 5820 5818 5817 5816 5815 5814 5813 5811 5809 5807 5805 5803 5800 5797 5794 5791 5788 5785 5782 5780 5777 5774 5770 5767 5764 5761 5758 5756 5754 5752 5751 5751 5750
5836 5834 5833 5831 5829 5827 5824 5822 5819 5817 5814 5812 5810 5808 5807 5805 5803 5801 5799 5796 5794 5791 5788 5785 5782 5778 5774 5771 5767 5764 5762 5759 5755 5750 5746 5743 5740 5737 5735 5734 5732 5731 5731
5829 5827 5825 5823 5822 5819 5817 5815 5812 5809 5807 5804 5802 5799 5797 5794 5792 5790 5788 5785 5782 5778 5774 5771 5767 5763 5759 5755 5751 5748 5745 5741 5737 5733 5729 5724 5721 5718 5716 5714 5713 5712 5711
5820 5818 5816 5815 5813 5811 5809 5806 5804 5801 5798 5795 5792 5789 5786 5783 5780 5777 5774 5771 5768 5764 5760 5755 5751 5747 5743 5739 5734 5730 5727 5723 5719 5715 5710 5706 5702 5699 5696 5694 5693 5692 5691
5811 5810 5808 5806 5804 5801 5799 5796 5794 5791 5788 5785 5781 5778 5774 5771 5767 5764 5760 5757 5753 5749 5744 5739 5735 5730 5726 5722 5717 5713 5709 5704 5700 5696 5691 5687 5683 5680 5677 5674 5672 5671 5670
5802 5800 5798 5796 5793 5791 5788 5785 5782 5779 5776 5773 5769 5766 5761 5757 5753 5750 5746 5742 5739 5735 5729 5724 5718 5713 5709 5704 5699 5695 5690 5686 5681 5677 5673 5668 5664 5660 5657 5654 5652 5650 5649
5792 5790 5787 5785 5782 5779 5776 5773 5770 5767 5763 5759 5756 5752 5748 5743 5739 5735 5730 5726 5723 5719 5715 5708 5703 5697 5692 5687 5682 5678 5673 5668 5664 5659 5654 5650 5645 5641 5638 5635 5632 5630 5629
5781 5778 5776 5773 5770 5767 5764 5760 5757 5753 5749 5745 5741 5737 5733 5728 5724 5719 5715 5710 5706 5702 5699 5693 5687 5681 5677 5672 5666 5662 5657 5652 5647 5642 5637 5632 5628 5624 5620 5616 5613 5611 5609
5770 5767 5764 5760 5757 5754 5750 5746 5743 5739 5735 5730 5726 5722 5718 5713 5709 5704 5699 5695 5690 5686 5683 5679 5672 5666 5661 5656 5651 5646 5641 5636 5631 5626 5621 5616 5612 5608 5604 5600 5597 5595 5593
5758 5754 5751 5747 5744 5740 5736 5732 5728 5724 5720 5715 5711 5707 5702 5698 5693 5689 5684 5680 5675 5670 5667 5663 5658 5652 5647 5641 5637 5632 5626 5621 5616 5612 5607 5602 5598 5593 5590 5586 5583 5580 5578
5745 5741 5737 5733 5729 5725 5721 5717 5713 5709 5704 5700 5696 5691 5687 5683 5678 5674 5670 5665 5661 5656 5652 5648 5643 5638 5633 5628 5623 5618 5613 5608 5603 5599 5594 5590 5586 5582 5578 5574 5571 5568 5565
5731 5727 5723 5719 5715 5711 5706 5702 5698 5694 5689 5685 5680 5676 5672 5668 5664 5660 5655 5651 5647 5642 5638 5633 5629 5625 5620 5615 5610 5606 5602 5597 5592 5588 5583 5579 5575 5571 5567 5563 5559 5556 5553
5717 5713 5708 5704 5700 5696 5691 5687 5682 5678 5674 5670 5665 5661 5657 5654 5649 5645 5641 5637 5632 5628 5624 5620 5616 5612 5607 5603 5599 5595 5591 5587 5583 5577 5574 5569 5565 5561 5557 5552 5549 5545 5542
5702 5698 5694 5690 5685 5681 5676 5672 5667 5663 5659 5655 5651 5646 5643 5639 5635 5631 5627 5623 5619 5615 5611 5608 5604 5600 5597 5593 5589 5586 5582 5578 5575 5570 5565 5561 5556 5551 5547 5543 5539 5535 5532
5688 5684 5679 5675 5670 5666 5661 5657 5653 5648 5644 5640 5636 5632 5628 5624 5621 5617 5614 5610 5606 5603 5600 5597 5594 5591 5588 5585 5582 5579 5574 5570 5567 5562 5558 5553 5548 5543 5538 5533 5529 5525 5522
5674 5670 5665 5661 5656 5651 5646 5642 5638 5634 5629 5625 5621 5618 5614 5611 5608 5604 5601 5598 5595 5593 5590 5588 5586 5583 5581 5578 5575 5572 5569 5565 5560 5555 5551 5546 5541 5535 5530 5525 5521 5517 5513
5660 5656 5651 5646 5642 5638 5633 5628 5624 5620 5616 5612 5608 5605 5602 5599 5596 5593 5591 5589 5587 5585 5583 5581 5579 5577 5575 5573 5570 5567 5564 5560 5555 5550 5545 5540 5535 5529 5524 5519 5514 5509 5505
5647 5642 5638 5633 5628 5624 5620 5615 5611 5607 5604 5600 5597 5594 5592 5590 5587 5585 5583 5582 5580 5579 5578 5576 5575 5573 5571 5569 5566 5563 5560 5555 5551 5546 5541 5535 5530 5524 5519 5513 5508 5504 5499